When you browse on this site, cookies collect data to enhance your experience and personalize the content and advertising you see.
Visit our Privacy Policy to learn more. By continuing to use the site, you agree to this use of cookies and data.
  • In Österreich
  • Länderverzeichnis
  • Für 7 Tage
  • Wassertemperatur
  • Satellitenkarten
  • Wetterkarte
  • News
  • Widgets
  • user-avatar
    Anmelden

    Stündliche Wetter Kaputy

    Heute, 26 Mai, Sonntag

    Zeit Temperatur Niederschläge Wind Luftdruck Luftfeuchtigkeit
    00:00 +12°C° 0 mm 2 m/S 752 mmHg 83%
    01:00 +10°C° 0 mm 2 m/S 752 mmHg 85%
    02:00 +10°C° 0 mm 2 m/S 752 mmHg 86%
    03:00 +9°C° 0 mm 2 m/S 752 mmHg 86%
    04:00 +9°C° 0 mm 2 m/S 752 mmHg 87%
    05:00 +10°C° 0 mm 2 m/S 752 mmHg 82%
    06:00 +12°C° 0 mm 3 m/S 752 mmHg 77%
    07:00 +13°C° 0 mm 4 m/S 752 mmHg 71%
    08:00 +14°C° 0 mm 4 m/S 752 mmHg 68%
    09:00 +15°C° 0 mm 4 m/S 752 mmHg 64%
    10:00 +16°C° 0 mm 5 m/S 751 mmHg 61%
    11:00 +17°C° 0 mm 5 m/S 751 mmHg 59%
    12:00 +19°C° 0 mm 5 m/S 751 mmHg 58%
    13:00 +20°C° 0 mm 5 m/S 751 mmHg 56%
    14:00 +20°C° 0 mm 5 m/S 750 mmHg 56%
    15:00 +20°C° 0 mm 5 m/S 750 mmHg 56%
    16:00 +20°C° 0 mm 5 m/S 750 mmHg 56%
    17:00 +19°C° 0 mm 4 m/S 750 mmHg 60%
    18:00 +18°C° 0 mm 3 m/S 750 mmHg 65%
    19:00 +17°C° 0 mm 2 m/S 749 mmHg 70%
    20:00 +17°C° 0 mm 2 m/S 750 mmHg 72%
    21:00 +16°C° 0 mm 3 m/S 750 mmHg 75%
    22:00 +14°C° 0 mm 3 m/S 750 mmHg 77%
    23:00 +14°C° 0 mm 3 m/S 750 mmHg 78%

    Morgen, 27 Mai, Montag

    Zeit Temperatur Niederschläge Wind Luftdruck Luftfeuchtigkeit
    00:00 +14°C° 0 mm 3 m/S 750 mmHg 79%
    01:00 +14°C° 0 mm 4 m/S 750 mmHg 80%
    02:00 +13°C° 0 mm 3 m/S 749 mmHg 82%
    03:00 +13°C° 0 mm 3 m/S 749 mmHg 84%
    04:00 +13°C° 0 mm 3 m/S 749 mmHg 86%
    05:00 +16°C° 0 mm 3 m/S 749 mmHg 81%
    06:00 +18°C° 0 mm 4 m/S 749 mmHg 75%
    07:00 +19°C° 0 mm 4 m/S 749 mmHg 70%
    08:00 +21°C° 0 mm 5 m/S 749 mmHg 63%
    09:00 +23°C° 0 mm 5 m/S 748 mmHg 57%
    10:00 +24°C° 0 mm 6 m/S 748 mmHg 51%
    11:00 +26°C° 0 mm 6 m/S 748 mmHg 50%
    12:00 +26°C° 0 mm 6 m/S 748 mmHg 49%
    13:00 +27°C° 0 mm 6 m/S 748 mmHg 48%
    14:00 +27°C° 0.1 mm 6 m/S 748 mmHg 49%
    15:00 +27°C° 0.1 mm 5 m/S 748 mmHg 51%
    16:00 +26°C° 0.1 mm 5 m/S 747 mmHg 53%
    17:00 +25°C° 0.1 mm 4 m/S 748 mmHg 59%
    18:00 +24°C° 0.1 mm 3 m/S 748 mmHg 65%
    19:00 +21°C° 0.1 mm 2 m/S 748 mmHg 71%
    20:00 +20°C° 0.1 mm 2 m/S 748 mmHg 74%
    21:00 +21°C° 0.1 mm 1 m/S 748 mmHg 78%
    22:00 +20°C° 0.1 mm 1 m/S 748 mmHg 81%
    23:00 +19°C° 0 mm 1 m/S 748 mmHg 83%

    übermorgen, 28 Mai, Dienstag

    Zeit Temperatur Niederschläge Wind Luftdruck Luftfeuchtigkeit
    00:00 +19°C° 0 mm 1 m/S 748 mmHg 85%
    01:00 +18°C° 0 mm 1 m/S 748 mmHg 87%
    02:00 +18°C° 1.1 mm 1 m/S 747 mmHg 89%
    03:00 +17°C° 1.1 mm 2 m/S 747 mmHg 91%
    04:00 +17°C° 1.1 mm 2 m/S 746 mmHg 93%
    05:00 +17°C° 3 mm 2 m/S 746 mmHg 94%
    06:00 +17°C° 3 mm 2 m/S 746 mmHg 94%
    07:00 +17°C° 3 mm 2 m/S 745 mmHg 95%
    08:00 +19°C° 0.5 mm 3 m/S 745 mmHg 88%
    09:00 +21°C° 0.5 mm 4 m/S 745 mmHg 81%
    10:00 +23°C° 0.5 mm 5 m/S 745 mmHg 74%
    11:00 +25°C° 0.3 mm 5 m/S 744 mmHg 68%
    12:00 +26°C° 0.3 mm 5 m/S 744 mmHg 63%
    13:00 +27°C° 0.3 mm 5 m/S 744 mmHg 57%
    14:00 +26°C° 0.6 mm 5 m/S 744 mmHg 61%
    15:00 +25°C° 0.6 mm 4 m/S 743 mmHg 65%
    16:00 +23°C° 0.6 mm 4 m/S 743 mmHg 69%
    17:00 +22°C° 0.9 mm 4 m/S 743 mmHg 72%
    18:00 +21°C° 0.9 mm 4 m/S 743 mmHg 76%
    19:00 +20°C° 0.9 mm 4 m/S 743 mmHg 80%
    20:00 +19°C° 1 mm 3 m/S 743 mmHg 83%
    21:00 +19°C° 1 mm 3 m/S 743 mmHg 86%
    22:00 +18°C° 1 mm 2 m/S 743 mmHg 90%
    23:00 +17°C° 0 mm 3 m/S 743 mmHg 91%

    29 Mai, Mittwoch

    Zeit Temperatur Niederschläge Wind Luftdruck Luftfeuchtigkeit
    00:00 +16°C° 0 mm 3 m/S 744 mmHg 93%
    01:00 +15°C° 0 mm 4 m/S 744 mmHg 94%
    02:00 +14°C° 0 mm 4 m/S 744 mmHg 93%
    03:00 +13°C° 0 mm 5 m/S 745 mmHg 92%
    04:00 +12°C° 0 mm 5 m/S 745 mmHg 92%
    05:00 +12°C° 0 mm 5 m/S 745 mmHg 91%
    06:00 +12°C° 0 mm 5 m/S 746 mmHg 90%
    07:00 +12°C° 0 mm 4 m/S 746 mmHg 89%
    08:00 +12°C° 0 mm 4 m/S 747 mmHg 86%
    09:00 +13°C° 0 mm 4 m/S 747 mmHg 83%
    10:00 +14°C° 0 mm 4 m/S 748 mmHg 81%
    11:00 +15°C° 0 mm 4 m/S 748 mmHg 77%
    12:00 +17°C° 0 mm 4 m/S 748 mmHg 73%
    13:00 +18°C° 0 mm 4 m/S 749 mmHg 69%
    14:00 +18°C° 0 mm 3 m/S 749 mmHg 69%
    15:00 +18°C° 0 mm 3 m/S 749 mmHg 68%
    16:00 +18°C° 0 mm 3 m/S 749 mmHg 67%
    17:00 +17°C° 0.5 mm 2 m/S 749 mmHg 73%
    18:00 +16°C° 0.5 mm 2 m/S 750 mmHg 79%
    19:00 +15°C° 0.5 mm 1 m/S 750 mmHg 84%
    20:00 +15°C° 0.8 mm 2 m/S 750 mmHg 87%
    21:00 +14°C° 0.8 mm 2 m/S 751 mmHg 90%
    22:00 +13°C° 0.8 mm 3 m/S 751 mmHg 92%
    23:00 +13°C° 0.3 mm 3 m/S 751 mmHg 92%

    30 Mai, Donnerstag

    Zeit Temperatur Niederschläge Wind Luftdruck Luftfeuchtigkeit
    00:00 +12°C° 0.3 mm 3 m/S 752 mmHg 92%
    01:00 +12°C° 0.3 mm 3 m/S 752 mmHg 92%
    02:00 +12°C° 0.5 mm 3 m/S 752 mmHg 93%
    03:00 +12°C° 0.5 mm 3 m/S 753 mmHg 94%
    04:00 +12°C° 0.5 mm 3 m/S 753 mmHg 94%
    05:00 +11°C° 0.8 mm 3 m/S 754 mmHg 93%
    06:00 +11°C° 0.8 mm 4 m/S 754 mmHg 92%
    07:00 +10°C° 0.8 mm 4 m/S 755 mmHg 91%
    08:00 +11°C° 0.1 mm 4 m/S 755 mmHg 84%
    09:00 +12°C° 0.1 mm 4 m/S 756 mmHg 78%
    10:00 +13°C° 0.1 mm 4 m/S 756 mmHg 71%
    11:00 +14°C° 0 mm 4 m/S 756 mmHg 65%
    12:00 +17°C° 0 mm 4 m/S 756 mmHg 58%
    13:00 +18°C° 0 mm 4 m/S 757 mmHg 52%
    14:00 +18°C° 0 mm 4 m/S 757 mmHg 51%
    15:00 +18°C° 0 mm 4 m/S 757 mmHg 51%
    16:00 +18°C° 0 mm 4 m/S 757 mmHg 50%
    17:00 +17°C° 0 mm 3 m/S 757 mmHg 54%
    18:00 +16°C° 0 mm 2 m/S 757 mmHg 58%
    19:00 +15°C° 0 mm 2 m/S 757 mmHg 62%
    20:00 +14°C° 0 mm 2 m/S 758 mmHg 64%
    21:00 +13°C° 0 mm 1 m/S 758 mmHg 65%
    22:00 +12°C° 0 mm 1 m/S 758 mmHg 67%
    23:00 +10°C° 0 mm 2 m/S 758 mmHg 68%

    31 Mai, Freitag

    Zeit Temperatur Niederschläge Wind Luftdruck Luftfeuchtigkeit
    00:00 +10°C° 0 mm 2 m/S 758 mmHg 69%
    01:00 +10°C° 0 mm 2 m/S 758 mmHg 70%
    02:00 +10°C° 0 mm 3 m/S 757 mmHg 71%
    03:00 +10°C° 0 mm 3 m/S 757 mmHg 71%
    04:00 +10°C° 0 mm 4 m/S 757 mmHg 72%
    05:00 +11°C° 0 mm 4 m/S 756 mmHg 69%
    06:00 +13°C° 0 mm 5 m/S 756 mmHg 67%
    07:00 +15°C° 0 mm 6 m/S 756 mmHg 64%
    08:00 +16°C° 0 mm 6 m/S 756 mmHg 64%
    09:00 +19°C° 0 mm 6 m/S 755 mmHg 63%
    10:00 +20°C° 0 mm 6 m/S 755 mmHg 62%
    11:00 +19°C° 0.3 mm 6 m/S 755 mmHg 66%
    12:00 +19°C° 0.3 mm 6 m/S 756 mmHg 70%
    13:00 +17°C° 0.3 mm 6 m/S 756 mmHg 73%
    14:00 +16°C° 0.4 mm 6 m/S 756 mmHg 76%
    15:00 +14°C° 0.4 mm 6 m/S 757 mmHg 79%
    16:00 +12°C° 0.4 mm 5 m/S 757 mmHg 82%
    17:00 +12°C° 0 mm 4 m/S 758 mmHg 80%
    18:00 +13°C° 0 mm 2 m/S 759 mmHg 78%
    19:00 +13°C° 0 mm 1 m/S 760 mmHg 76%
    20:00 +12°C° 0 mm 1 m/S 760 mmHg 78%
    21:00 +11°C° 0 mm 1 m/S 761 mmHg 80%
    22:00 +10°C° 0 mm 1 m/S 762 mmHg 82%
    23:00 +9°C° 0 mm 1 m/S 762 mmHg 82%
    Mehr zeigen